When you browse on this site, cookies collect data to enhance your experience and personalize the content and advertising you see.
Visit our Privacy Policy to learn more. By continuing to use the site, you agree to this use of cookies and data.
  • In Spain
  • List of Countries
  • For 7 days
  • Water Temperature
  • Satellite Maps
  • Weather Map
  • Weather Widgets
  • user-avatar
    Login

    Hourly Weather Zadar

    Today, 21 April, Sunday

    Time Temperature Precipitation Wind Pressure Humidity
    00:00 +13°C° 0 mm 4 mps 766 mmHg 51%
    01:00 +13°C° 0 mm 5 mps 766 mmHg 48%
    02:00 +13°C° 0 mm 4 mps 766 mmHg 48%
    03:00 +12°C° 0 mm 4 mps 765 mmHg 48%
    04:00 +12°C° 0 mm 4 mps 765 mmHg 47%
    05:00 +13°C° 0 mm 4 mps 765 mmHg 47%
    06:00 +13°C° 0 mm 3 mps 765 mmHg 47%
    07:00 +14°C° 0 mm 3 mps 765 mmHg 47%
    08:00 +17°C° 0 mm 3 mps 765 mmHg 44%
    09:00 +18°C° 0 mm 3 mps 765 mmHg 40%
    10:00 +20°C° 0 mm 3 mps 764 mmHg 37%
    11:00 +21°C° 0 mm 3 mps 764 mmHg 40%
    12:00 +21°C° 0 mm 4 mps 764 mmHg 43%
    13:00 +21°C° 0 mm 4 mps 764 mmHg 45%
    14:00 +21°C° 0 mm 5 mps 763 mmHg 50%
    15:00 +20°C° 0 mm 5 mps 763 mmHg 55%
    16:00 +20°C° 0 mm 5 mps 763 mmHg 61%
    17:00 +18°C° 0 mm 4 mps 763 mmHg 68%
    18:00 +17°C° 0 mm 4 mps 762 mmHg 75%
    19:00 +14°C° 0 mm 3 mps 762 mmHg 82%
    20:00 +14°C° 0 mm 3 mps 762 mmHg 81%
    21:00 +14°C° 0 mm 4 mps 763 mmHg 81%
    22:00 +14°C° 0 mm 4 mps 763 mmHg 80%
    23:00 +13°C° 0 mm 4 mps 762 mmHg 80%

    Tomorrow, 22 April, Monday

    Time Temperature Precipitation Wind Pressure Humidity
    00:00 +13°C° 0 mm 5 mps 762 mmHg 79%
    01:00 +13°C° 0 mm 5 mps 762 mmHg 79%
    02:00 +13°C° 0 mm 5 mps 762 mmHg 80%
    03:00 +13°C° 0 mm 6 mps 761 mmHg 81%
    04:00 +11°C° 0 mm 7 mps 761 mmHg 83%
    05:00 +12°C° 0 mm 7 mps 761 mmHg 79%
    06:00 +14°C° 0 mm 7 mps 760 mmHg 76%
    07:00 +13°C° 0 mm 8 mps 760 mmHg 73%
    08:00 +15°C° 0 mm 8 mps 760 mmHg 69%
    09:00 +17°C° 0 mm 8 mps 759 mmHg 65%
    10:00 +18°C° 0 mm 8 mps 759 mmHg 60%
    11:00 +18°C° 0 mm 8 mps 758 mmHg 59%
    12:00 +19°C° 0 mm 9 mps 758 mmHg 58%
    13:00 +19°C° 0 mm 9 mps 757 mmHg 57%
    14:00 +19°C° 0 mm 10 mps 756 mmHg 57%
    15:00 +19°C° 0 mm 10 mps 756 mmHg 58%
    16:00 +18°C° 0 mm 11 mps 755 mmHg 58%
    17:00 +17°C° 0 mm 11 mps 755 mmHg 62%
    18:00 +17°C° 0 mm 11 mps 755 mmHg 65%
    19:00 +16°C° 0 mm 11 mps 754 mmHg 69%
    20:00 +14°C° 0.9 mm 11 mps 754 mmHg 73%
    21:00 +14°C° 0.9 mm 12 mps 754 mmHg 78%
    22:00 +14°C° 0.9 mm 12 mps 754 mmHg 83%
    23:00 +13°C° 1.9 mm 13 mps 754 mmHg 82%

    Day after tomorrow, 23 April, Tuesday

    Time Temperature Precipitation Wind Pressure Humidity
    00:00 +13°C° 1.9 mm 14 mps 753 mmHg 81%
    01:00 +13°C° 1.9 mm 14 mps 752 mmHg 80%
    02:00 +14°C° 0.5 mm 14 mps 752 mmHg 81%
    03:00 +14°C° 0.5 mm 14 mps 752 mmHg 82%
    04:00 +14°C° 0.5 mm 14 mps 751 mmHg 82%
    05:00 +14°C° 0.3 mm 14 mps 751 mmHg 81%
    06:00 +14°C° 0.3 mm 14 mps 751 mmHg 80%
    07:00 +15°C° 0.3 mm 14 mps 751 mmHg 80%
    08:00 +15°C° 0.1 mm 13 mps 751 mmHg 79%
    09:00 +17°C° 0.1 mm 13 mps 751 mmHg 78%
    10:00 +17°C° 0.1 mm 12 mps 752 mmHg 77%
    11:00 +18°C° 0.6 mm 12 mps 752 mmHg 76%
    12:00 +18°C° 0.6 mm 12 mps 752 mmHg 75%
    13:00 +18°C° 0.6 mm 12 mps 752 mmHg 74%
    14:00 +18°C° 1.7 mm 11 mps 752 mmHg 74%
    15:00 +18°C° 1.7 mm 10 mps 752 mmHg 75%
    16:00 +18°C° 1.7 mm 10 mps 752 mmHg 76%
    17:00 +17°C° 0.9 mm 9 mps 752 mmHg 77%
    18:00 +17°C° 0.9 mm 8 mps 753 mmHg 79%
    19:00 +16°C° 0.9 mm 7 mps 753 mmHg 81%
    20:00 +16°C° 0.7 mm 6 mps 754 mmHg 83%
    21:00 +16°C° 0.7 mm 6 mps 754 mmHg 85%
    22:00 +15°C° 0.7 mm 5 mps 755 mmHg 87%
    23:00 +15°C° 0.6 mm 5 mps 756 mmHg 88%

    24 April, Wednesday

    Time Temperature Precipitation Wind Pressure Humidity
    00:00 +15°C° 0.6 mm 5 mps 756 mmHg 89%
    01:00 +15°C° 0.6 mm 5 mps 757 mmHg 91%
    02:00 +15°C° 0.5 mm 5 mps 757 mmHg 92%
    03:00 +15°C° 0.5 mm 6 mps 757 mmHg 93%
    04:00 +15°C° 0.5 mm 7 mps 757 mmHg 93%
    05:00 +15°C° 0.4 mm 7 mps 758 mmHg 92%
    06:00 +16°C° 0.4 mm 8 mps 758 mmHg 90%
    07:00 +16°C° 0.4 mm 8 mps 759 mmHg 89%
    08:00 +17°C° 0.2 mm 8 mps 759 mmHg 87%
    09:00 +17°C° 0.2 mm 9 mps 760 mmHg 85%
    10:00 +18°C° 0.2 mm 9 mps 760 mmHg 82%
    11:00 +18°C° 0 mm 8 mps 760 mmHg 80%
    12:00 +20°C° 0 mm 8 mps 761 mmHg 77%
    13:00 +20°C° 0 mm 7 mps 761 mmHg 75%
    14:00 +20°C° 0 mm 7 mps 761 mmHg 73%
    15:00 +21°C° 0 mm 7 mps 761 mmHg 72%
    16:00 +21°C° 0 mm 6 mps 760 mmHg 70%
    17:00 +20°C° 0 mm 6 mps 761 mmHg 73%
    18:00 +19°C° 0 mm 6 mps 761 mmHg 75%
    19:00 +17°C° 0 mm 6 mps 761 mmHg 77%
    20:00 +17°C° 0 mm 6 mps 761 mmHg 75%
    21:00 +16°C° 0 mm 5 mps 762 mmHg 73%
    22:00 +16°C° 0 mm 5 mps 762 mmHg 71%
    23:00 +16°C° 0 mm 5 mps 762 mmHg 71%

    25 April, Thursday

    Time Temperature Precipitation Wind Pressure Humidity
    00:00 +16°C° 0 mm 5 mps 762 mmHg 70%
    01:00 +15°C° 0 mm 6 mps 762 mmHg 69%
    02:00 +15°C° 0 mm 6 mps 762 mmHg 71%
    03:00 +15°C° 0 mm 6 mps 762 mmHg 72%
    04:00 +15°C° 0 mm 7 mps 762 mmHg 73%
    05:00 +16°C° 0 mm 7 mps 762 mmHg 73%
    06:00 +16°C° 0 mm 7 mps 762 mmHg 73%
    07:00 +17°C° 0 mm 7 mps 762 mmHg 73%
    08:00 +18°C° 0 mm 7 mps 763 mmHg 71%
    09:00 +20°C° 0 mm 7 mps 763 mmHg 68%
    10:00 +21°C° 0 mm 7 mps 763 mmHg 66%
    11:00 +22°C° 0 mm 7 mps 762 mmHg 64%
    12:00 +22°C° 0 mm 7 mps 762 mmHg 61%
    13:00 +23°C° 0 mm 6 mps 762 mmHg 59%
    14:00 +23°C° 0 mm 6 mps 762 mmHg 59%
    15:00 +23°C° 0 mm 6 mps 761 mmHg 59%
    16:00 +23°C° 0 mm 6 mps 761 mmHg 59%
    17:00 +22°C° 0 mm 6 mps 761 mmHg 63%
    18:00 +20°C° 0 mm 5 mps 761 mmHg 67%
    19:00 +19°C° 0 mm 5 mps 761 mmHg 71%
    20:00 +19°C° 0 mm 5 mps 761 mmHg 71%
    21:00 +18°C° 0 mm 4 mps 761 mmHg 72%
    22:00 +18°C° 0 mm 4 mps 761 mmHg 72%
    23:00 +18°C° 0 mm 4 mps 761 mmHg 71%

    26 April, Friday

    Time Temperature Precipitation Wind Pressure Humidity
    00:00 +16°C° 0 mm 5 mps 761 mmHg 70%
    01:00 +16°C° 0 mm 5 mps 761 mmHg 69%
    02:00 +16°C° 0 mm 5 mps 760 mmHg 69%
    03:00 +16°C° 0 mm 5 mps 760 mmHg 68%
    04:00 +16°C° 0 mm 5 mps 760 mmHg 68%
    05:00 +16°C° 0 mm 5 mps 760 mmHg 69%
    06:00 +17°C° 0 mm 6 mps 760 mmHg 71%
    07:00 +17°C° 0 mm 6 mps 760 mmHg 73%
    08:00 +19°C° 0 mm 6 mps 760 mmHg 72%
    09:00 +20°C° 0 mm 6 mps 760 mmHg 71%
    10:00 +21°C° 0 mm 7 mps 760 mmHg 70%
    11:00 +22°C° 0 mm 6 mps 760 mmHg 69%
    12:00 +22°C° 0 mm 6 mps 760 mmHg 68%
    13:00 +22°C° 0 mm 6 mps 759 mmHg 67%
    14:00 +22°C° 0 mm 5 mps 759 mmHg 69%
    15:00 +22°C° 0 mm 5 mps 759 mmHg 71%
    16:00 +21°C° 0 mm 4 mps 758 mmHg 73%
    17:00 +20°C° 0.1 mm 4 mps 758 mmHg 78%
    18:00 +19°C° 0.1 mm 4 mps 758 mmHg 83%
    19:00 +18°C° 0.1 mm 3 mps 758 mmHg 87%
    20:00 +17°C° 0.8 mm 3 mps 758 mmHg 89%
    21:00 +17°C° 0.8 mm 3 mps 759 mmHg 90%
    22:00 +17°C° 0.8 mm 3 mps 759 mmHg 91%
    23:00 +16°C° 0.4 mm 2 mps 759 mmHg 91%
    Show more